EZY13PC EGKK-LFPG

Flight info

Callsign EZY13PC
Flight time 0h 39m
Altitude 21000
Route SFD M605 HARDY UM605 BIBAX
Aircraft A320/M-SDE3FGHIRWY/LB1

Departure

Time 2026-05-06 18:20
Airport London Gatwick Airport (EGKK)

Arrival

Time 2026-05-06 18:59
Airport Charles de Gaulle International Airport (LFPG)
Time Latitude Longitude Altitude Speed Heading
2026-05-06 17:31 51.16065 -0.18030 205 ft 0 kts 78°
2026-05-06 18:02 51.16064 -0.18033 205 ft 2 kts 77°
2026-05-06 18:02 51.16057 -0.18066 195 ft 3 kts 58°
2026-05-06 18:03 51.16046 -0.18096 214 ft 3 kts 73°
2026-05-06 18:03 51.16042 -0.18127 215 ft 3 kts 94°
2026-05-06 18:03 51.16048 -0.18156 209 ft 3 kts 147°
2026-05-06 18:03 51.16068 -0.18168 209 ft 3 kts 174°
2026-05-06 18:04 51.16090 -0.18170 210 ft 3 kts 171°
2026-05-06 18:04 51.16094 -0.18171 208 ft 0 kts 168°
2026-05-06 18:06 51.16084 -0.18168 212 ft 4 kts 168°
2026-05-06 18:07 51.16055 -0.18157 215 ft 6 kts 167°
2026-05-06 18:07 51.16012 -0.18142 205 ft 10 kts 167°
2026-05-06 18:07 51.15945 -0.18118 208 ft 9 kts 167°
2026-05-06 18:07 51.15886 -0.18097 205 ft 8 kts 168°
2026-05-06 18:08 51.15836 -0.18079 205 ft 7 kts 168°
2026-05-06 18:08 51.15766 -0.18055 205 ft 14 kts 167°
2026-05-06 18:08 51.15684 -0.18077 211 ft 12 kts 242°
2026-05-06 18:08 51.15669 -0.18195 208 ft 10 kts 257°
2026-05-06 18:09 51.15654 -0.18300 207 ft 9 kts 256°
2026-05-06 18:09 51.15614 -0.18355 208 ft 9 kts 184°
2026-05-06 18:09 51.15555 -0.18338 211 ft 3 kts 167°
2026-05-06 18:11 51.15532 -0.18330 205 ft 10 kts 167°
2026-05-06 18:11 51.15431 -0.18294 214 ft 17 kts 168°
2026-05-06 18:11 51.15321 -0.18257 205 ft 15 kts 168°
2026-05-06 18:12 51.15224 -0.18228 210 ft 13 kts 182°
2026-05-06 18:12 51.15184 -0.18332 211 ft 11 kts 261°
2026-05-06 18:12 51.15168 -0.18463 211 ft 16 kts 258°
2026-05-06 18:12 51.15139 -0.18675 208 ft 21 kts 258°
2026-05-06 18:13 51.15111 -0.18887 209 ft 19 kts 258°
2026-05-06 18:13 51.15084 -0.19076 216 ft 17 kts 257°
2026-05-06 18:13 51.15057 -0.19243 210 ft 14 kts 238°
2026-05-06 18:13 51.14978 -0.19279 212 ft 11 kts 205°
2026-05-06 18:14 51.14941 -0.19448 215 ft 23 kts 258°
2026-05-06 18:14 51.14904 -0.19720 210 ft 26 kts 258°
2026-05-06 18:14 51.14867 -0.20007 208 ft 27 kts 256°
2026-05-06 18:14 51.14820 -0.20315 203 ft 29 kts 258°
2026-05-06 18:15 51.14786 -0.20570 210 ft 20 kts 257°
2026-05-06 18:15 51.14756 -0.20782 209 ft 19 kts 258°
2026-05-06 18:15 51.14731 -0.20968 207 ft 16 kts 257°
2026-05-06 18:15 51.14708 -0.21132 209 ft 11 kts 257°
2026-05-06 18:16 51.14698 -0.21206 208 ft 0 kts 257°
2026-05-06 18:16 51.14694 -0.21233 213 ft 8 kts 257°
2026-05-06 18:16 51.14670 -0.21328 212 ft 9 kts 222°
2026-05-06 18:17 51.14653 -0.21339 208 ft 0 kts 193°
2026-05-06 18:17 51.14622 -0.21332 205 ft 5 kts 168°
2026-05-06 18:17 51.14619 -0.21331 205 ft 1 kts 168°
2026-05-06 18:18 51.14566 -0.21303 209 ft 12 kts 153°
2026-05-06 18:18 51.14521 -0.21210 207 ft 9 kts 98°
2026-05-06 18:18 51.14520 -0.21202 211 ft 0 kts 97°
2026-05-06 18:18 51.14522 -0.21151 206 ft 10 kts 79°
2026-05-06 18:19 51.14529 -0.21104 214 ft 0 kts 77°
2026-05-06 18:19 51.14530 -0.21095 211 ft 9 kts 77°
2026-05-06 18:19 51.14595 -0.20634 209 ft 78 kts 78°
2026-05-06 18:20 51.14758 -0.19477 214 ft 134 kts 77°
2026-05-06 18:20 51.14989 -0.17815 390 ft 162 kts 76°
2026-05-06 18:20 51.15219 -0.16083 1052 ft 167 kts 76°
2026-05-06 18:20 51.15472 -0.14220 1764 ft 169 kts 74°
2026-05-06 18:21 51.15713 -0.12464 2415 ft 167 kts 74°
2026-05-06 18:21 51.15960 -0.10666 3097 ft 165 kts 74°
2026-05-06 18:21 51.16191 -0.08900 3761 ft 162 kts 81°
2026-05-06 18:21 51.16033 -0.07069 4146 ft 181 kts 115°
2026-05-06 18:22 51.15130 -0.05538 4422 ft 204 kts 153°
2026-05-06 18:22 51.13696 -0.04896 4681 ft 228 kts 169°
2026-05-06 18:22 51.12059 -0.04367 5061 ft 252 kts 169°
2026-05-06 18:22 51.10282 -0.03794 5625 ft 268 kts 169°
2026-05-06 18:23 51.08434 -0.03132 6031 ft 272 kts 166°
2026-05-06 18:23 51.06601 -0.02316 6336 ft 279 kts 164°
2026-05-06 18:23 51.04719 -0.01407 6878 ft 285 kts 163°
2026-05-06 18:23 51.02847 -0.00484 6977 ft 280 kts 163°
2026-05-06 18:24 51.01049 0.00399 6996 ft 280 kts 163°
2026-05-06 18:24 50.99191 0.01299 6993 ft 280 kts 163°
2026-05-06 18:24 50.97325 0.02193 6999 ft 280 kts 163°
2026-05-06 18:24 50.95460 0.03081 6992 ft 280 kts 164°
2026-05-06 18:25 50.93596 0.03966 6978 ft 280 kts 164°
2026-05-06 18:25 50.91718 0.04853 7202 ft 286 kts 164°
2026-05-06 18:25 50.89820 0.05746 8145 ft 286 kts 164°
2026-05-06 18:25 50.87898 0.06649 9008 ft 290 kts 163°
2026-05-06 18:26 50.85953 0.07564 9828 ft 294 kts 163°
2026-05-06 18:26 50.83968 0.08495 10579 ft 299 kts 163°
2026-05-06 18:26 50.81967 0.09429 11353 ft 302 kts 164°
2026-05-06 18:26 50.79937 0.10374 12133 ft 305 kts 164°
2026-05-06 18:27 50.77922 0.11317 12906 ft 308 kts 163°
2026-05-06 18:27 50.75936 0.12620 13668 ft 312 kts 151°
2026-05-06 18:27 50.74080 0.14669 13925 ft 333 kts 141°
2026-05-06 18:27 50.72231 0.17061 14052 ft 355 kts 141°
2026-05-06 18:28 50.70267 0.19609 14231 ft 374 kts 141°
2026-05-06 18:28 50.68261 0.22203 14706 ft 381 kts 141°
2026-05-06 18:28 50.66198 0.24855 15306 ft 385 kts 141°
2026-05-06 18:28 50.64110 0.27522 15913 ft 388 kts 141°
2026-05-06 18:29 50.62003 0.30202 16519 ft 391 kts 142°
2026-05-06 18:29 50.59847 0.32939 17120 ft 395 kts 142°
2026-05-06 18:29 50.57744 0.35612 17675 ft 398 kts 142°
2026-05-06 18:29 50.56273 0.37486 18081 ft 400 kts 142°
2026-05-06 18:30 50.54100 0.40253 18599 ft 403 kts 142°
2026-05-06 18:30 50.51192 0.43941 19273 ft 407 kts 142°
2026-05-06 18:30 50.48996 0.46722 19766 ft 409 kts 142°
2026-05-06 18:30 50.46758 0.49552 20268 ft 412 kts 142°
2026-05-06 18:31 50.45244 0.51464 20598 ft 414 kts 142°
2026-05-06 18:31 50.42996 0.54298 20914 ft 416 kts 142°
2026-05-06 18:31 50.40720 0.57169 20981 ft 426 kts 142°
2026-05-06 18:31 50.38380 0.60116 20983 ft 437 kts 142°
2026-05-06 18:32 50.36048 0.63049 20982 ft 441 kts 142°
2026-05-06 18:32 50.33657 0.66053 20985 ft 441 kts 142°
2026-05-06 18:32 50.31257 0.69061 20983 ft 441 kts 142°
2026-05-06 18:32 50.28863 0.72057 20983 ft 441 kts 142°
2026-05-06 18:33 50.26460 0.75061 20982 ft 441 kts 142°
2026-05-06 18:33 50.24062 0.78051 20984 ft 441 kts 142°
2026-05-06 18:33 50.21664 0.81037 20982 ft 441 kts 142°
2026-05-06 18:33 50.19267 0.84021 20983 ft 441 kts 142°
2026-05-06 18:34 50.16867 0.87009 20982 ft 441 kts 142°
2026-05-06 18:34 50.14480 0.89982 20978 ft 441 kts 142°
2026-05-06 18:34 50.12081 0.92962 20980 ft 441 kts 142°
2026-05-06 18:34 50.09678 0.95939 20981 ft 441 kts 142°
2026-05-06 18:35 50.07276 0.98908 20979 ft 441 kts 143°
2026-05-06 18:35 50.04759 1.01512 20979 ft 440 kts 152°
2026-05-06 18:35 50.02023 1.03628 20974 ft 439 kts 155°
2026-05-06 18:35 49.99271 1.05689 20972 ft 439 kts 155°
2026-05-06 18:36 49.96519 1.07754 20970 ft 440 kts 155°
2026-05-06 18:36 49.93764 1.09823 20973 ft 440 kts 155°
2026-05-06 18:36 49.91059 1.11853 20972 ft 440 kts 155°
2026-05-06 18:36 49.88303 1.13916 20970 ft 440 kts 155°
2026-05-06 18:37 49.85552 1.15977 20968 ft 440 kts 155°
2026-05-06 18:37 49.82797 1.18047 20966 ft 440 kts 155°
2026-05-06 18:37 49.80044 1.20111 20964 ft 440 kts 155°
2026-05-06 18:37 49.77311 1.22158 20966 ft 441 kts 155°
2026-05-06 18:38 49.74549 1.24221 20964 ft 441 kts 155°
2026-05-06 18:38 49.71788 1.26278 20967 ft 441 kts 155°
2026-05-06 18:38 49.69024 1.28331 20966 ft 441 kts 155°
2026-05-06 18:38 49.66255 1.30383 20965 ft 440 kts 155°
2026-05-06 18:39 49.63554 1.32381 20862 ft 423 kts 155°
2026-05-06 18:39 49.60926 1.34321 20417 ft 415 kts 155°
2026-05-06 18:39 49.58337 1.36231 19864 ft 411 kts 155°
2026-05-06 18:40 49.53214 1.40015 18733 ft 406 kts 154°
2026-05-06 18:40 49.50677 1.41892 18198 ft 403 kts 154°
2026-05-06 18:40 49.48158 1.43753 17591 ft 401 kts 154°
2026-05-06 18:40 49.45650 1.45601 17029 ft 398 kts 154°
2026-05-06 18:41 49.43171 1.47425 16484 ft 395 kts 154°
2026-05-06 18:41 49.40694 1.49242 15963 ft 392 kts 154°
2026-05-06 18:41 49.38237 1.51039 15448 ft 389 kts 154°
2026-05-06 18:41 49.35802 1.52816 14947 ft 387 kts 154°
2026-05-06 18:42 49.33517 1.54942 14455 ft 383 kts 141°
2026-05-06 18:42 49.31668 1.57835 13969 ft 379 kts 126°
2026-05-06 18:42 49.30403 1.61181 13472 ft 375 kts 111°
2026-05-06 18:42 49.29693 1.64995 12938 ft 370 kts 97°
2026-05-06 18:43 49.29482 1.68864 12398 ft 367 kts 92°
2026-05-06 18:43 49.29314 1.72728 12129 ft 362 kts 92°
2026-05-06 18:43 49.28950 1.76546 11898 ft 362 kts 103°
2026-05-06 18:43 49.28187 1.80216 11530 ft 361 kts 108°
2026-05-06 18:44 49.27369 1.83841 11180 ft 359 kts 108°
2026-05-06 18:44 49.26558 1.87442 10837 ft 357 kts 108°
2026-05-06 18:44 49.25767 1.90965 10612 ft 346 kts 108°
2026-05-06 18:44 49.24992 1.94410 10360 ft 337 kts 109°
2026-05-06 18:45 49.24239 1.97760 10125 ft 328 kts 109°
2026-05-06 18:45 49.23508 2.01007 9950 ft 318 kts 109°
2026-05-06 18:45 49.22793 2.04161 9780 ft 309 kts 109°
2026-05-06 18:45 49.22182 2.06867 9607 ft 301 kts 109°
2026-05-06 18:46 49.21490 2.09918 9414 ft 295 kts 109°
2026-05-06 18:46 49.20603 2.12716 9232 ft 292 kts 124°
2026-05-06 18:46 49.19435 2.15203 8976 ft 291 kts 127°
2026-05-06 18:46 49.18223 2.17672 8703 ft 289 kts 127°
2026-05-06 18:47 49.17011 2.20116 8453 ft 288 kts 127°
2026-05-06 18:47 49.15801 2.22548 8194 ft 287 kts 127°
2026-05-06 18:47 49.14596 2.24957 7937 ft 285 kts 127°
2026-05-06 18:47 49.13393 2.27358 7677 ft 283 kts 127°
2026-05-06 18:48 49.12297 2.29760 7433 ft 281 kts 115°
2026-05-06 18:48 49.11795 2.32403 7191 ft 279 kts 99°
2026-05-06 18:48 49.11499 2.35309 6933 ft 277 kts 97°
2026-05-06 18:48 49.11230 2.38217 6636 ft 275 kts 97°
2026-05-06 18:49 49.10969 2.41097 6329 ft 273 kts 97°
2026-05-06 18:49 49.10719 2.43873 6154 ft 272 kts 97°
2026-05-06 18:49 49.10452 2.46816 5962 ft 272 kts 97°
2026-05-06 18:49 49.10190 2.49664 5778 ft 271 kts 97°
2026-05-06 18:50 49.09925 2.52503 5597 ft 270 kts 97°
2026-05-06 18:50 49.09657 2.55341 5415 ft 270 kts 97°
2026-05-06 18:50 49.09387 2.58172 5239 ft 269 kts 97°
2026-05-06 18:50 49.09112 2.60996 5059 ft 269 kts 97°
2026-05-06 18:51 49.08834 2.63811 4880 ft 269 kts 97°
2026-05-06 18:51 49.08552 2.66625 4709 ft 268 kts 97°
2026-05-06 18:51 49.08269 2.69439 4497 ft 268 kts 97°
2026-05-06 18:51 49.07995 2.72147 4341 ft 267 kts 97°
2026-05-06 18:52 49.07712 2.74940 4162 ft 266 kts 97°
2026-05-06 18:52 49.07430 2.77722 4031 ft 265 kts 97°
2026-05-06 18:52 49.07146 2.80493 4006 ft 263 kts 97°
2026-05-06 18:52 49.06866 2.83198 4005 ft 252 kts 97°
2026-05-06 18:53 49.06599 2.85743 4007 ft 237 kts 97°
2026-05-06 18:53 49.06341 2.88208 4011 ft 234 kts 97°
2026-05-06 18:53 49.05868 2.90573 4004 ft 236 kts 121°
2026-05-06 18:53 49.04671 2.92268 4007 ft 238 kts 154°
2026-05-06 18:54 49.03112 2.92755 4005 ft 224 kts 186°
2026-05-06 18:54 49.01709 2.91923 4010 ft 216 kts 222°
2026-05-06 18:54 49.00946 2.90045 4005 ft 210 kts 265°
2026-05-06 18:54 49.01108 2.87870 3925 ft 209 kts 285°
2026-05-06 18:55 49.01186 2.85666 3675 ft 210 kts 267°
2026-05-06 18:55 49.01052 2.83502 3403 ft 205 kts 267°
2026-05-06 18:55 49.00931 2.81383 3136 ft 197 kts 268°
2026-05-06 18:55 49.00822 2.79325 2887 ft 187 kts 268°
2026-05-06 18:56 49.00724 2.77412 2612 ft 176 kts 269°
2026-05-06 18:56 49.00630 2.75599 2385 ft 167 kts 269°
2026-05-06 18:56 49.00542 2.73881 2179 ft 158 kts 269°
2026-05-06 18:56 49.00458 2.72265 1972 ft 148 kts 269°
2026-05-06 18:57 49.00380 2.70746 1766 ft 144 kts 270°
2026-05-06 18:57 49.00302 2.69244 1561 ft 141 kts 270°
2026-05-06 18:57 49.00225 2.67756 1369 ft 140 kts 269°
2026-05-06 18:57 49.00147 2.66261 1158 ft 140 kts 269°
2026-05-06 18:58 49.00071 2.64786 966 ft 139 kts 269°
2026-05-06 18:58 48.99993 2.63315 799 ft 140 kts 269°
2026-05-06 18:58 48.99914 2.61840 589 ft 140 kts 270°
2026-05-06 18:58 48.99838 2.60364 415 ft 140 kts 269°
2026-05-06 18:59 48.99778 2.59008 353 ft 121 kts 269°
2026-05-06 18:59 48.99718 2.58000 355 ft 71 kts 265°
2026-05-06 18:59 48.99701 2.57407 356 ft 37 kts 278°
2026-05-06 18:59 48.99751 2.57129 359 ft 22 kts 284°
2026-05-06 19:00 48.99792 2.56906 359 ft 22 kts 287°
2026-05-06 19:00 48.99830 2.56700 361 ft 20 kts 284°
2026-05-06 19:00 48.99910 2.56533 357 ft 19 kts 290°
2026-05-06 19:00 48.99910 2.56392 354 ft 20 kts 263°
2026-05-06 19:01 48.99894 2.56091 354 ft 23 kts 265°
2026-05-06 19:01 48.99889 2.55945 354 ft 24 kts 272°
2026-05-06 19:01 48.99940 2.55707 360 ft 24 kts 311°
2026-05-06 19:01 49.00097 2.55629 356 ft 24 kts 343°
2026-05-06 19:02 49.00250 2.55558 360 ft 25 kts 343°
2026-05-06 19:02 49.00417 2.55486 355 ft 25 kts 344°
2026-05-06 19:02 49.00549 2.55562 355 ft 22 kts 73°
2026-05-06 19:02 49.00566 2.55797 360 ft 23 kts 84°
2026-05-06 19:03 49.00594 2.56040 360 ft 19 kts 59°
2026-05-06 19:03 49.00635 2.56113 355 ft 4 kts 336°
2026-05-06 19:03 49.00651 2.56112 354 ft 1 kts 358°
2026-05-06 19:03 49.00671 2.56110 358 ft 4 kts 357°
2026-05-06 19:04 49.00688 2.56109 362 ft 0 kts 357°